Location: Poughquag
(41.6090°N, 73.6820°W)
Time: 03:39:05
(UTC-04:00)

Transit 2A - Pass Details

Date: 01 June 2020
Orbit: 592 x 967 km, 66.7° (Epoch: 06 July)

Event Time Altitude Azimuth Distance (km) Brightness Sun altitude
Rises 22:50:58 0° 328° (NNW) 3,565 11.1 -20.2°
Reaches altitude 10° 22:53:28 10° 326° (NNW) 2,653 10.0 -20.4°
Maximum altitude 22:59:42 74° 244° (WSW) 1,003 6.5 -21.0°
Enters shadow 23:02:14 39° 168° (SSE) 1,417 6.8 -21.2°
Drops below altitude 10° 23:06:04 10° 160° (SSE) 2,690 - -21.5°
Sets 23:08:36 0° 158° (SSE) 3,617 - -21.7°
